Regional Weather Roundup
Issued by NWS

Home | Current Version | Previous Version | Text Only | Print | Product List | Glossary Off
Versions: 1 2 3 4 5 6 7 8 9 10 11 12 13 14 15 16 17 18 19 20 21 22 23 24 25 26 27 28 29 30 31 32 33 34 35 36 37 38 39 40 41 42 43 44 45 46 47 48 49 50

857
ASUS43 KMPX 240301
RWRMN
WEATHER ROUNDUP FOR MINNESOTA
NATIONAL WEATHER SERVICE TWIN CITIES/CHANHASSEN MN
1000 PM CDT FRI JUN 23 2017


NOTE: "FAIR" INDICATES FEW OR NO CLOUDS BELOW 12,000 FEET WITH NO
SIGNIFICANT WEATHER AND/OR OBSTRUCTIONS TO VISIBILITY. N/A MEANS
CURRENT SKY AND/OR WEATHER CONDITIONS ARE NOT AVAILABLE.

MNZ060>063-068>070-240400-
   Twin Cities Metro

CITY           SKY/WX    TMP DP  RH WIND       PRES   REMARKS
TWIN CITIES    MOCLDY    65  49  56 NW13G22   29.91R
ST PAUL        MOCLDY    64  49  57 NW22      29.91R
CRYSTAL        CLOUDY    64  48  56 NW12      29.90R
BLAINE         PTCLDY    63  50  63 NW12      29.91R
LAKEVILLE      CLOUDY    63  52  67 NW13      29.92R
EDEN PRAIRIE   CLOUDY    66  49  54 NW12G18   29.91R
SOUTH ST PAUL  MOCLDY    65  48  55 NW12G22   29.91R
LAKE ELMO      FAIR      63  50  63 NW10G23   29.91R
$$
MNZ001>005-007-008-013>017-022>024-027-028-240400-
   Northwest Minnesota

CITY           SKY/WX    TMP DP  RH WIND       PRES   REMARKS
BEMIDJI        CLEAR     49  46  87 NW6       29.93R
HALLOCK        CLOUDY    55  43  62 NW10      29.94S
ROSEAU           N/A     55  48  76 W5        29.92R
WARROAD        CLOUDY    54  48  82 W7        29.91R
CROOKSTON      CLOUDY    55  43  62 NW10      29.98R
FOSSTON        CLOUDY    54  39  58 NW12G18   29.96R
DETROIT LAKES  MOCLDY    55  41  58 NW12      29.98R
MOORHEAD       MOCLDY    57  41  54 NW9       29.99R
PARK RAPIDS    CLOUDY    55  44  66 NW8       29.93R
MAHNOMEN       MOCLDY    55  40  57 NW15      29.97R
$$
MNZ006-009>011-018-025>026-240400-
   North Central Minnesota

CITY           SKY/WX    TMP DP  RH WIND       PRES   REMARKS
BAUDETTE       CLOUDY    54  49  83 NW10      29.88R
FLAG ISLAND    CLOUDY    54  48  82 W10       29.86S
INTL FALLS     CLOUDY    54  50  86 W12G20    29.85R
WASKISH        CLOUDY    55  48  76 NW12G18   29.91R
BIG FORK       CLOUDY    54  48  82 NW3       29.90R
LONGVILLE      CLOUDY    57  46  67 NW7       29.92R
GRAND RAPIDS   CLOUDY    56  48  74 NW15      29.91R
CRANE LAKE     CLOUDY    55  52  88 W5        29.84R
ORR            CLOUDY    55  48  76 W9        29.83R
COOK           CLOUDY    55  52  88 W10G17    29.85R
WALKER         MOCLDY    51  46  82 NW3       29.93R
$$
MNZ012-019>021-037-240400-
   Northeast Minnesota

CITY           SKY/WX    TMP DP  RH WIND       PRES   REMARKS
DULUTH         CLOUDY    55  54  96 NW13G20   29.84R
ELY            CLOUDY    55  54  94 W8G17     29.82R
HIBBING        CLOUDY    54  48  80 NW15G21   29.86R
EVELETH        CLOUDY    58  49  73 NW14G22   29.86R
DULUTH HARBOR  CLOUDY    63  55  77 W23G29    29.84R
TWO HARBORS    CLOUDY    63  54  72 NW9       29.80R
SILVER BAY     CLOUDY    59  54  82 NW5       29.78R
GRAND MARAIS     N/A     61  52  72 VRB5      29.74R
G MARAIS ARPRT MOCLDY    55  46  71 W3        29.78R
$$
MNZ029>031-032-039>041-046>048-054>057-064-240400-
   West Central Minnesota

CITY           SKY/WX    TMP DP  RH WIND       PRES   REMARKS
FERGUS FALLS   MOCLDY    57  43  58 NW15      29.97R
WHEATON        CLEAR     59  39  47 NW10      30.02R
MORRIS         CLOUDY    61  43  51 NW14      29.98R
ALEXANDRIA     PTCLDY    58  46  64 W9        29.97R
ELBOW LAKE     FAIR      58  43  57 NW17      29.99R
WADENA         CLOUDY    57  43  58 NW8       29.94R
GLENWOOD       PTCLDY    55  46  71 W8        29.97R
BENSON         PTCLDY    57  45  62 NW7       29.99R
ORTONVILLE     PTCLDY    63  41  45 NW10G17   30.01R
MADISON        CLEAR     61  45  55 W7        30.01R
WILLMAR        FAIR      59  48  67 W5        29.98R
$$
MNZ033>034-036-042>043-049>051-058-059-240400-
   Central Minnesota

CITY           SKY/WX    TMP DP  RH WIND       PRES   REMARKS
ST CLOUD       CLOUDY    61  48  62 NW9       29.93R
SAUK CENTRE    FAIR      55  46  70 W6        29.96R
PAYNESVILLE    CLEAR     55  46  69 W3        29.97R
AITKIN         CLOUDY    57  48  72 NW7       29.90R
PINE RIVER     CLEAR     55  48  76 NW3       29.96R
BRAINERD       PTCLDY    58  47  66 NW7       29.93R
STAPLES        PTCLDY    54  45  71 CALM      29.94R
LONG PRAIRIE   FAIR      55  45  67 SW5       29.95R
LITTLE FALLS   PTCLDY    57  45  62 W5        29.94R
LITCHFIELD     CLEAR     63  48  59 NW10      29.96R
BUFFALO        CLOUDY    63  47  56 W10G16    29.94R
MAPLE LAKE     CLOUDY    63  50  61 NW13G20   29.95R
HUTCHINSON     PTCLDY    61  48  63 W9        29.97R
$$
MNZ037-044-045-052-053-240400-
   East Central Minnesota

CITY           SKY/WX    TMP DP  RH WIND       PRES   REMARKS
PRINCETON      MOCLDY    63  50  63 W8        29.92R
MORA           PTCLDY    57  46  67 NW12      29.91R
CAMBRIDGE      PTCLDY    61  48  63 W6        29.89R
RUSH CITY      MOCLDY    57  54  88 NW3       29.89R
MOOSE LAKE     CLOUDY    59  48  67 NW12G17   29.86R
HINCKLEY       FAIR      59  52  77 NW8       29.89R
CLOQUET        CLOUDY    55  50  82 NW12      29.87R
MCGREGOR       CLOUDY    57  48  72 NW7       29.90R
$$
MNZ071>073-080-081-089-090-097-098-240400-
   Southwest Minnesota

CITY           SKY/WX    TMP DP  RH WIND       PRES   REMARKS
MONTEVIDEO     PTCLDY    57  45  62 NW5       29.99R
GRANITE FALLS  PTCLDY    58  47  66 W8        30.01R
CANBY          PTCLDY    56  44  63 CALM      30.03R
MARSHALL       PTCLDY    57  46  66 NW10      30.02R
REDWOOD FALLS  PTCLDY    57  47  69 W7        29.98R
OLIVIA         PTCLDY    55  46  71 W6        29.97R
PIPESTONE      CLEAR     61  39  44 NW7       30.05R
WINDOM         CLEAR     55  48  76 W7        30.01R
WORTHINGTON    PTCLDY    55  47  74 W8        30.04R
JACKSON        CLEAR     55  46  71 CALM      30.02R
TRACY          CLEAR     60  48  64 W7        30.02R
SLAYTON        PTCLDY    56  47  70 W7        30.03R
$$
MNZ065>067-074>077-082>085-091>093-240400-
   South Central Minnesota

CITY           SKY/WX    TMP DP  RH WIND       PRES   REMARKS
MANKATO        CLEAR     61  50  67 NW12      29.97R
NEW ULM        CLEAR     59  48  67 NW9       29.98R
ST JAMES       PTCLDY    61  48  63 W8        30.00R
FAIRMONT       PTCLDY    60  49  66 W12       30.00R
GLENCOE        PTCLDY    62  53  72 W8        29.95R
FARIBAULT      PTCLDY    63  52  67 W9        29.94R
OWATONNA       CLEAR     61  52  72 W9        29.94R
WASECA         CLEAR     59  50  72 W9        29.97R
ALBERT LEA     CLEAR     61  52  72 W7        29.96R
$$
MNZ078>079-086>088-094>096-240400-
   Southeast Minnesota

CITY           SKY/WX    TMP DP  RH WIND       PRES   REMARKS
ROCHESTER      PTCLDY    60  53  77 W10       29.93R
RED WING       CLOUDY    64  52  63 N3        29.88R
STANTON        PTCLDY    63  51  66 W12       29.91R
DODGE CENTER   CLEAR     61  52  72 W12       29.93R
WINONA         MOCLDY    61  54  77 W5        29.89R
AUSTIN         CLEAR     61  50  67 W13G18    29.94R
PRESTON        CLEAR     60  53  77 NW10      29.92R
$$
ABBREVIATIONS USED IN REMARKS
   TC - TEMPERATURES IN CELSIUS
  WCI - WIND CHILL INDEX
   HX - HEAT INDEX
  VSB - VISIBILITY
$$




USA.gov is the U.S. government's official web portal to all federal, state and local government web resources and services.